Location: Newark
(43.0000°N, 1.6781°W)
Time: 07:25:40
(UTC+00:00)

CAS-4B - Pass Details

Date: 14 December 2022
Orbit: 515 x 531 km, 43.0° (Epoch: 27 January)

Event Time Altitude Azimuth Distance (km) Brightness Sun altitude
Exits shadow 04:41:10 28° 89° (E) 1,018 ? -29.9°
Drops below altitude 10° 04:43:09 10° 90° (E) 1,772 ? -29.6°
Sets 04:45:23 0° 91° (E) 2,665 ? -29.2°
